Location: Venise Bay
(45.0825°N, 73.1481°W)
Time: 20:45:14
(UTC-05:00)

ISS - Pass Details

Date: 07 December 2021
Orbit: 413 x 422 km, 51.6° (Epoch: 24 January)

Event Time Altitude Azimuth Distance (km) Brightness Sun altitude
Rises 17:18:46 0° 297° (WNW) 2,385 0.8 -11.6°
Reaches altitude 10° 17:20:55 10° 292° (WNW) 1,514 -0.2 -11.9°
Maximum altitude 17:24:13 49° 216° (SW) 554 -2.8 -12.5°
Drops below altitude 10° 17:27:29 10° 141° (SE) 1,500 -1.2 -13.0°
Enters shadow 17:29:02 - 136° (SE) 2,129 -0.4 -13.3°
